When you browse on this site, cookies collect data to enhance your experience and personalize the content and advertising you see.
Visit our Privacy Policy to learn more. By continuing to use the site, you agree to this use of cookies and data.
  • In United Kingdom
  • List of Countries
  • For 7 days
  • Water Temperature
  • Weather Map
  • Weather Widgets
  • user-avatar
    Login

    Hourly Weather Lezhe

    Today, 7 June, Sunday

    Time Temperature Precipitation Wind Pressure Humidity
    00:00 +16°C° 0 mm 1 mps 732 mmHg 90%
    01:00 +15°C° 0 mm 1 mps 732 mmHg 90%
    02:00 +15°C° 0 mm 1 mps 732 mmHg 90%
    03:00 +15°C° 0 mm 1 mps 732 mmHg 90%
    04:00 +15°C° 0 mm 1 mps 732 mmHg 90%
    05:00 +18°C° 0 mm 1 mps 733 mmHg 86%
    06:00 +19°C° 0 mm 1 mps 733 mmHg 82%
    07:00 +20°C° 0 mm 1 mps 733 mmHg 78%
    08:00 +22°C° 0 mm 1 mps 733 mmHg 72%
    09:00 +23°C° 0 mm 2 mps 733 mmHg 67%
    10:00 +24°C° 0 mm 2 mps 733 mmHg 61%
    11:00 +24°C° 0 mm 2 mps 733 mmHg 60%
    12:00 +25°C° 0 mm 3 mps 733 mmHg 59%
    13:00 +25°C° 0 mm 3 mps 733 mmHg 57%
    14:00 +25°C° 0 mm 3 mps 733 mmHg 59%
    15:00 +24°C° 0 mm 3 mps 733 mmHg 61%
    16:00 +24°C° 0 mm 2 mps 733 mmHg 62%
    17:00 +21°C° 0 mm 2 mps 733 mmHg 70%
    18:00 +21°C° 0 mm 1 mps 733 mmHg 78%
    19:00 +19°C° 0 mm 1 mps 733 mmHg 85%
    20:00 +19°C° 0 mm 1 mps 733 mmHg 86%
    21:00 +18°C° 0 mm 1 mps 733 mmHg 88%
    22:00 +18°C° 0 mm 1 mps 734 mmHg 89%
    23:00 +16°C° 0 mm 1 mps 734 mmHg 88%

    Tomorrow, 8 June, Monday

    Time Temperature Precipitation Wind Pressure Humidity
    00:00 +16°C° 0 mm 1 mps 733 mmHg 88%
    01:00 +16°C° 0 mm 1 mps 733 mmHg 88%
    02:00 +16°C° 0 mm 1 mps 733 mmHg 88%
    03:00 +16°C° 0 mm 1 mps 733 mmHg 87%
    04:00 +16°C° 0 mm 1 mps 733 mmHg 87%
    05:00 +18°C° 0 mm 1 mps 733 mmHg 83%
    06:00 +20°C° 0 mm 1 mps 733 mmHg 79%
    07:00 +20°C° 0 mm 2 mps 733 mmHg 75%
    08:00 +22°C° 0 mm 1 mps 733 mmHg 71%
    09:00 +24°C° 0 mm 1 mps 733 mmHg 67%
    10:00 +25°C° 0 mm 1 mps 733 mmHg 62%
    11:00 +25°C° 0.4 mm 2 mps 733 mmHg 62%
    12:00 +25°C° 0.4 mm 2 mps 733 mmHg 61%
    13:00 +25°C° 0.4 mm 2 mps 733 mmHg 61%
    14:00 +25°C° 0.3 mm 2 mps 733 mmHg 61%
    15:00 +25°C° 0.3 mm 2 mps 733 mmHg 60%
    16:00 +25°C° 0.3 mm 1 mps 732 mmHg 60%
    17:00 +23°C° 0.1 mm 1 mps 732 mmHg 67%
    18:00 +22°C° 0.1 mm 1 mps 732 mmHg 73%
    19:00 +18°C° 0.1 mm 0 mps 732 mmHg 79%
    20:00 +20°C° 0 mm 1 mps 733 mmHg 79%
    21:00 +19°C° 0 mm 1 mps 733 mmHg 79%
    22:00 +19°C° 0 mm 1 mps 733 mmHg 79%
    23:00 +18°C° 0 mm 1 mps 733 mmHg 79%

    Day after tomorrow, 9 June, Tuesday

    Time Temperature Precipitation Wind Pressure Humidity
    00:00 +18°C° 0 mm 1 mps 733 mmHg 79%
    01:00 +18°C° 0 mm 1 mps 733 mmHg 78%
    02:00 +18°C° 0 mm 1 mps 733 mmHg 78%
    03:00 +18°C° 0 mm 1 mps 733 mmHg 78%
    04:00 +16°C° 0 mm 1 mps 733 mmHg 78%
    05:00 +19°C° 0 mm 1 mps 733 mmHg 73%
    06:00 +21°C° 0 mm 1 mps 733 mmHg 68%
    07:00 +21°C° 0 mm 0 mps 733 mmHg 64%
    08:00 +24°C° 0.1 mm 1 mps 733 mmHg 59%
    09:00 +26°C° 0.1 mm 1 mps 733 mmHg 55%
    10:00 +27°C° 0.1 mm 1 mps 733 mmHg 51%
    11:00 +27°C° 0.3 mm 2 mps 733 mmHg 51%
    12:00 +27°C° 0.3 mm 2 mps 733 mmHg 52%
    13:00 +27°C° 0.3 mm 3 mps 733 mmHg 52%
    14:00 +27°C° 0.3 mm 2 mps 733 mmHg 54%
    15:00 +26°C° 0.3 mm 2 mps 733 mmHg 56%
    16:00 +26°C° 0.3 mm 2 mps 733 mmHg 58%
    17:00 +24°C° 0.2 mm 1 mps 733 mmHg 65%
    18:00 +22°C° 0.2 mm 1 mps 733 mmHg 72%
    19:00 +21°C° 0.2 mm 1 mps 733 mmHg 80%
    20:00 +20°C° 0 mm 1 mps 734 mmHg 81%
    21:00 +17°C° 0 mm 0 mps 734 mmHg 83%
    22:00 +16°C° 0 mm 0 mps 734 mmHg 85%
    23:00 +18°C° 0 mm 1 mps 734 mmHg 85%

    10 June, Wednesday

    Time Temperature Precipitation Wind Pressure Humidity
    00:00 +18°C° 0 mm 1 mps 734 mmHg 86%
    01:00 +18°C° 0 mm 1 mps 734 mmHg 86%
    02:00 +18°C° 0.1 mm 1 mps 734 mmHg 86%
    03:00 +16°C° 0.1 mm 1 mps 734 mmHg 86%
    04:00 +16°C° 0.1 mm 1 mps 734 mmHg 86%
    05:00 +19°C° 0.1 mm 1 mps 734 mmHg 81%
    06:00 +21°C° 0.1 mm 1 mps 734 mmHg 77%
    07:00 +22°C° 0.1 mm 1 mps 734 mmHg 72%
    08:00 +23°C° 0.9 mm 1 mps 734 mmHg 71%
    09:00 +24°C° 0.9 mm 2 mps 734 mmHg 70%
    10:00 +24°C° 0.9 mm 2 mps 734 mmHg 68%
    11:00 +24°C° 1.3 mm 2 mps 734 mmHg 68%
    12:00 +24°C° 1.3 mm 2 mps 734 mmHg 68%
    13:00 +24°C° 1.3 mm 3 mps 734 mmHg 68%
    14:00 +24°C° 0.1 mm 2 mps 734 mmHg 63%
    15:00 +24°C° 0.1 mm 2 mps 733 mmHg 58%
    16:00 +25°C° 0.1 mm 2 mps 733 mmHg 53%
    17:00 +23°C° 0 mm 2 mps 733 mmHg 59%
    18:00 +21°C° 0 mm 1 mps 733 mmHg 65%
    19:00 +20°C° 0 mm 1 mps 733 mmHg 72%
    20:00 +19°C° 0 mm 1 mps 734 mmHg 72%
    21:00 +18°C° 0 mm 1 mps 734 mmHg 73%
    22:00 +16°C° 0 mm 1 mps 734 mmHg 74%
    23:00 +16°C° 0 mm 1 mps 734 mmHg 74%

    11 June, Thursday

    Time Temperature Precipitation Wind Pressure Humidity
    00:00 +16°C° 0 mm 1 mps 733 mmHg 75%
    01:00 +16°C° 0 mm 1 mps 733 mmHg 75%
    02:00 +15°C° 0 mm 1 mps 733 mmHg 75%
    03:00 +15°C° 0 mm 1 mps 733 mmHg 74%
    04:00 +15°C° 0 mm 1 mps 732 mmHg 74%
    05:00 +18°C° 0 mm 1 mps 732 mmHg 71%
    06:00 +19°C° 0 mm 1 mps 732 mmHg 67%
    07:00 +21°C° 0 mm 1 mps 732 mmHg 63%
    08:00 +22°C° 0.1 mm 1 mps 732 mmHg 62%
    09:00 +23°C° 0.1 mm 1 mps 732 mmHg 60%
    10:00 +24°C° 0.1 mm 2 mps 732 mmHg 58%
    11:00 +24°C° 0.2 mm 2 mps 732 mmHg 57%
    12:00 +24°C° 0.2 mm 2 mps 731 mmHg 56%
    13:00 +24°C° 0.2 mm 3 mps 731 mmHg 55%
    14:00 +24°C° 0.2 mm 2 mps 731 mmHg 58%
    15:00 +24°C° 0.2 mm 2 mps 731 mmHg 60%
    16:00 +23°C° 0.2 mm 2 mps 730 mmHg 62%
    17:00 +22°C° 0 mm 1 mps 731 mmHg 68%
    18:00 +20°C° 0 mm 1 mps 731 mmHg 74%
    19:00 +19°C° 0 mm 1 mps 731 mmHg 80%
    20:00 +18°C° 0 mm 1 mps 731 mmHg 82%
    21:00 +16°C° 0 mm 1 mps 731 mmHg 84%
    22:00 +15°C° 0 mm 1 mps 732 mmHg 87%
    23:00 +15°C° 0 mm 1 mps 731 mmHg 87%

    12 June, Friday

    Time Temperature Precipitation Wind Pressure Humidity
    00:00 +15°C° 0 mm 1 mps 731 mmHg 87%
    01:00 +15°C° 0 mm 1 mps 731 mmHg 87%
    02:00 +14°C° 0 mm 1 mps 731 mmHg 87%
    03:00 +14°C° 0 mm 1 mps 731 mmHg 87%
    04:00 +14°C° 0 mm 1 mps 731 mmHg 86%
    05:00 +16°C° 0 mm 1 mps 731 mmHg 81%
    06:00 +19°C° 0 mm 1 mps 731 mmHg 75%
    07:00 +20°C° 0 mm 1 mps 731 mmHg 69%
    08:00 +22°C° 0 mm 1 mps 731 mmHg 64%
    09:00 +23°C° 0 mm 2 mps 732 mmHg 60%
    10:00 +24°C° 0 mm 2 mps 732 mmHg 55%
    11:00 +24°C° 0 mm 2 mps 731 mmHg 56%
    12:00 +24°C° 0 mm 3 mps 731 mmHg 57%
    13:00 +24°C° 0 mm 3 mps 731 mmHg 57%
    14:00 +24°C° 0 mm 3 mps 731 mmHg 58%
    15:00 +24°C° 0 mm 3 mps 731 mmHg 60%
    16:00 +22°C° 0 mm 3 mps 731 mmHg 61%
    17:00 +21°C° 0 mm 2 mps 731 mmHg 68%
    18:00 +19°C° 0 mm 2 mps 732 mmHg 76%
    19:00 +19°C° 0 mm 1 mps 732 mmHg 83%
    20:00 +18°C° 0 mm 1 mps 732 mmHg 85%
    21:00 +16°C° 0 mm 1 mps 732 mmHg 87%
    22:00 +15°C° 0 mm 1 mps 732 mmHg 89%
    23:00 +15°C° 0 mm 1 mps 732 mmHg 89%
    Show more